Hourly Data Report for September 18, 2017

All times are specified in Local Standard Time (LST). Add 1 hour to adjust for Daylight Saving Time where and when it is observed.

FREDERICTON
NEW BRUNSWICK

45°52'08.000" N
66°32'14.000" W
20.70 m
8101505
71700
YFC

Download Data

Hourly Data (September 2017)
Hourly Data Report for September 18, 2017
Temp Definition
°C
Dew Point Temp Definition
°C
Rel Hum Definition
%
Wind Dir Definition
10's deg

Wind Spd Definition
km/h
Visibility Definition
km
Stn Press Definition
kPa
Hmdx Definition


Wind Chill Definition


Weather Definition


TIME
00:00 Legend Double Dagger 15.2 14.8 97 LegendMM 4 16.1 101.93     LegendNANA
01:00 Legend Double Dagger 14.6 14.3 98 7 4 6.4 101.92     Fog
02:00 Legend Double Dagger 15.1 14.8 98 9 4 6.4 101.95     Fog
03:00 Legend Double Dagger 14.4 14.1 98   0 6.4 101.92     Fog
04:00 Legend Double Dagger 13.8 13.5 98 21 4 2.8 101.92     Fog
05:00 Legend Double Dagger 14.1 13.8 98 20 8 6.4 101.97     Fog
06:00 Legend Double Dagger 13.6 13.3 98 18 9 1.2 102.02     Fog
07:00 Legend Double Dagger 13.6 13.3 98 17 5 0.6 102.07     Fog
08:00 Legend Double Dagger 13.7 13.4 98 15 9 0.4 102.08     Fog
09:00 Legend Double Dagger 14.5 13.6 95 LegendMM 4 16.1 102.14     LegendNANA
10:00 Legend Double Dagger 16.1 14.2 88 11 5 16.1 102.14     LegendNANA
11:00 Legend Double Dagger 17.2 15.0 87 8 8 16.1 102.14     LegendNANA
12:00 Legend Double Dagger 18.3 15.0 81 16 8 16.1 102.14     LegendNANA
13:00 Legend Double Dagger 19.3 15.4 78 16 11 16.1 102.09     LegendNANA
14:00 Legend Double Dagger 19.9 15.4 75 19 4 16.1 102.06     LegendNANA
15:00 Legend Double Dagger 21.0 16.1 73 5 9 16.1 102.05 26   LegendNANA
16:00 Legend Double Dagger 22.0 16.1 69 LegendMM 4 16.1 102.04 27   LegendNANA
17:00 Legend Double Dagger 21.0 17.0 77 8 8 16.1 102.05 26   LegendNANA
18:00 Legend Double Dagger 19.9 16.2 79 16 15 16.1 102.07     LegendNANA
19:00 Legend Double Dagger 17.3 15.3 88 17 13 16.1 102.12     LegendNANA
20:00 Legend Double Dagger 17.2 15.2 88 18 11 16.1 102.16     LegendNANA
21:00 Legend Double Dagger 16.9 15.1 89 20 5 16.1 102.17     LegendNANA
22:00 Legend Double Dagger 16.8 15.0 89   0 16.1 102.18     LegendNANA
23:00 Legend Double Dagger 16.5 15.1 91   0 16.1 102.17     LegendNANA

Notes on Data Quality.

Legend

  • E = Estimated
  • M = Missing
  • NA = Not Available
  • ‡ = Partner data that is not subject to review by the National Climate Archives
Date modified: